Time,TemperatureF,DewpointF,PressureIn,WindDirection,WindDirectionDegrees,WindSpeedMPH,WindSpeedGustMPH,Humidity,HourlyPrecipIn,Conditions,Clouds,dailyrainin,SolarRadiationWatts/m^2,SoftwareType,DateUTC
2013-03-28 00:00:00,38.9,38.9,29.84,West,278,0.0,0.0,100,0.00,,,0.00,0,Wunderground v.1.15,2013-03-28 07:00:00,
2013-03-28 00:10:00,38.8,38.8,29.84,West,278,0.0,0.0,100,0.00,,,0.00,0,Wunderground v.1.15,2013-03-28 07:10:00,
2013-03-28 00:20:00,38.6,38.6,29.84,West,278,0.0,0.0,100,0.00,,,0.00,0,Wunderground v.1.15,2013-03-28 07:20:00,
2013-03-28 00:30:00,38.4,38.4,29.84,West,278,1.0,1.0,100,0.00,,,0.00,0,Wunderground v.1.15,2013-03-28 07:30:00,
2013-03-28 00:40:00,38.2,38.2,29.85,West,278,2.0,2.0,100,0.00,,,0.00,0,Wunderground v.1.15,2013-03-28 07:40:00,
2013-03-28 00:50:00,37.7,37.7,29.84,West,278,0.0,0.0,100,0.00,,,0.00,0,Wunderground v.1.15,2013-03-28 07:50:00,
2013-03-28 01:00:00,37.5,37.5,29.85,West,278,0.0,0.0,100,0.00,,,0.00,0,Wunderground v.1.15,2013-03-28 08:00:00,
2013-03-28 01:10:00,36.9,36.9,29.85,West,278,0.0,0.0,100,0.00,,,0.00,0,Wunderground v.1.15,2013-03-28 08:10:00,
2013-03-28 01:20:00,37.0,37.0,29.85,West,278,0.0,0.0,100,0.00,,,0.00,0,Wunderground v.1.15,2013-03-28 08:20:00,
2013-03-28 01:30:00,36.8,36.8,29.85,WSW,243,3.0,3.0,100,0.00,,,0.00,0,Wunderground v.1.15,2013-03-28 08:30:00,
2013-03-28 01:40:00,37.1,37.1,29.85,WSW,243,0.0,0.0,100,0.00,,,0.00,0,Wunderground v.1.15,2013-03-28 08:40:00,
2013-03-28 01:50:00,37.3,37.3,29.85,WSW,243,0.0,0.0,100,0.00,,,0.00,0,Wunderground v.1.15,2013-03-28 08:50:00,
2013-03-28 02:00:00,37.2,37.2,29.84,WSW,243,1.0,1.0,100,0.00,,,0.00,0,Wunderground v.1.15,2013-03-28 09:00:00,
2013-03-28 02:05:00,37.1,37.1,29.84,WSW,243,0.0,1.0,100,0.00,,,0.00,0,Wunderground v.1.15,2013-03-28 09:05:00,
2013-03-28 02:10:00,36.9,36.9,29.85,WSW,243,0.0,0.0,100,0.00,,,0.00,0,Wunderground v.1.15,2013-03-28 09:10:00,
2013-03-28 02:20:00,36.8,36.8,29.84,WSW,243,0.0,0.0,100,0.00,,,0.00,0,Wunderground v.1.15,2013-03-28 09:20:00,
2013-03-28 02:30:00,37.0,37.0,29.84,WSW,243,0.0,0.0,100,0.00,,,0.00,0,Wunderground v.1.15,2013-03-28 09:30:00,
2013-03-28 02:41:00,37.2,37.2,29.84,WSW,243,0.0,0.0,100,0.00,,,0.00,0,Wunderground v.1.15,2013-03-28 09:41:00,
2013-03-28 02:50:00,37.4,37.4,29.84,WSW,243,0.0,0.0,100,0.00,,,0.00,0,Wunderground v.1.15,2013-03-28 09:50:00,
2013-03-28 03:00:00,37.3,37.3,29.84,WSW,243,3.0,3.0,100,0.00,,,0.00,0,Wunderground v.1.15,2013-03-28 10:00:00,
2013-03-28 03:10:00,37.1,37.1,29.84,WSW,243,3.0,3.0,100,0.00,,,0.00,0,Wunderground v.1.15,2013-03-28 10:10:00,
2013-03-28 03:20:00,37.5,37.5,29.85,WSW,243,1.0,1.0,100,0.00,,,0.00,0,Wunderground v.1.15,2013-03-28 10:20:00,
2013-03-28 03:30:00,37.7,37.7,29.85,WSW,243,0.0,0.0,100,0.00,,,0.00,0,Wunderground v.1.15,2013-03-28 10:30:00,
2013-03-28 03:40:00,37.6,37.6,29.85,WSW,243,0.0,0.0,100,0.00,,,0.00,0,Wunderground v.1.15,2013-03-28 10:40:00,
2013-03-28 03:50:00,37.7,37.7,29.85,WSW,243,0.0,0.0,100,0.00,,,0.00,0,Wunderground v.1.15,2013-03-28 10:50:00,
2013-03-28 04:00:00,37.7,37.7,29.85,WSW,245,0.0,0.0,100,0.00,,,0.00,0,Wunderground v.1.15,2013-03-28 11:00:00,
2013-03-28 04:05:00,37.7,37.7,29.85,WSW,244,0.0,0.0,100,0.00,,,0.00,0,Wunderground v.1.15,2013-03-28 11:05:00,
2013-03-28 04:10:00,37.7,37.7,29.85,WSW,245,0.0,0.0,100,0.00,,,0.00,0,Wunderground v.1.15,2013-03-28 11:10:00,
2013-03-28 04:20:00,37.6,37.6,29.85,WSW,244,0.0,0.0,100,0.00,,,0.00,0,Wunderground v.1.15,2013-03-28 11:20:00,
2013-03-28 04:30:00,37.5,37.5,29.86,WSW,245,0.0,0.0,100,0.00,,,0.00,0,Wunderground v.1.15,2013-03-28 11:30:00,
2013-03-28 04:40:00,37.2,37.2,29.86,WSW,245,0.0,0.0,100,0.00,,,0.00,0,Wunderground v.1.15,2013-03-28 11:40:00,
2013-03-28 04:50:00,37.1,37.1,29.85,WSW,245,0.0,0.0,100,0.00,,,0.00,0,Wunderground v.1.15,2013-03-28 11:50:00,
2013-03-28 05:00:00,37.1,37.1,29.86,WSW,244,0.0,0.0,100,0.00,,,0.00,0,Wunderground v.1.15,2013-03-28 12:00:00,
2013-03-28 05:10:00,37.1,37.1,29.86,WSW,245,0.0,0.0,100,0.00,,,0.00,0,Wunderground v.1.15,2013-03-28 12:10:00,
2013-03-28 05:20:00,37.3,37.3,29.85,WSW,245,0.0,0.0,100,0.00,,,0.00,0,Wunderground v.1.15,2013-03-28 12:20:00,
2013-03-28 05:30:00,37.3,37.3,29.86,WSW,245,2.0,2.0,100,0.00,,,0.00,0,Wunderground v.1.15,2013-03-28 12:30:00,
2013-03-28 05:40:00,37.4,37.4,29.85,WSW,245,0.0,0.0,100,0.00,,,0.00,0,Wunderground v.1.15,2013-03-28 12:40:00,
2013-03-28 05:50:00,37.3,37.3,29.86,WSW,244,0.0,0.0,100,0.00,,,0.00,0,Wunderground v.1.15,2013-03-28 12:50:00,
2013-03-28 06:00:00,37.6,37.6,29.85,WSW,244,0.0,0.0,100,0.00,,,0.00,0,Wunderground v.1.15,2013-03-28 13:00:00,
2013-03-28 06:05:00,37.5,37.5,29.85,WSW,244,0.0,0.0,100,0.00,,,0.00,0,Wunderground v.1.15,2013-03-28 13:05:00,
2013-03-28 06:10:00,37.4,37.4,29.85,WSW,244,0.0,0.0,100,0.00,,,0.00,0,Wunderground v.1.15,2013-03-28 13:10:00,
2013-03-28 06:20:00,37.3,37.3,29.86,WSW,244,0.0,0.0,100,0.00,,,0.00,0,Wunderground v.1.15,2013-03-28 13:20:00,
2013-03-28 06:30:00,37.2,37.2,29.86,WSW,244,0.0,0.0,100,0.00,,,0.00,0,Wunderground v.1.15,2013-03-28 13:30:00,
2013-03-28 06:40:00,37.1,37.1,29.86,WSW,244,0.0,0.0,100,0.00,,,0.00,0,Wunderground v.1.15,2013-03-28 13:40:00,
2013-03-28 06:50:00,37.2,37.2,29.86,WSW,244,0.0,0.0,100,0.00,,,0.00,0,Wunderground v.1.15,2013-03-28 13:50:00,
2013-03-28 07:00:00,37.1,37.1,29.86,WSW,244,0.0,0.0,100,0.00,,,0.00,0,Wunderground v.1.15,2013-03-28 14:00:00,
2013-03-28 07:05:00,37.1,37.1,29.86,WSW,244,0.0,0.0,100,0.00,,,0.00,0,Wunderground v.1.15,2013-03-28 14:05:00,
2013-03-28 07:10:00,37.1,37.1,29.86,WSW,244,0.0,0.0,100,0.00,,,0.00,0,Wunderground v.1.15,2013-03-28 14:10:00,
2013-03-28 07:20:00,37.3,37.3,29.87,WSW,244,0.0,0.0,100,0.00,,,0.00,0,Wunderground v.1.15,2013-03-28 14:20:00,
2013-03-28 07:30:00,37.5,37.5,29.87,WSW,244,0.0,0.0,100,0.00,,,0.00,0,Wunderground v.1.15,2013-03-28 14:30:00,
2013-03-28 07:40:00,37.8,37.8,29.87,WSW,244,0.0,0.0,100,0.00,,,0.00,0,Wunderground v.1.15,2013-03-28 14:40:00,
2013-03-28 07:50:00,38.0,38.0,29.87,WSW,244,0.0,0.0,100,0.00,,,0.00,0,Wunderground v.1.15,2013-03-28 14:50:00,
2013-03-28 08:00:00,38.2,38.2,29.88,WSW,244,0.0,0.0,100,0.00,,,0.00,0,Wunderground v.1.15,2013-03-28 15:00:00,
2013-03-28 08:10:00,38.4,38.4,29.88,WSW,244,0.0,0.0,100,0.00,,,0.00,0,Wunderground v.1.15,2013-03-28 15:10:00,
2013-03-28 08:20:00,38.7,38.7,29.88,WSW,244,1.0,1.0,100,0.00,,,0.00,0,Wunderground v.1.15,2013-03-28 15:20:00,
2013-03-28 08:30:00,39.1,39.1,29.88,WSW,245,0.0,0.0,100,0.00,,,0.00,0,Wunderground v.1.15,2013-03-28 15:30:00,
2013-03-28 08:40:00,39.8,39.8,29.88,WSW,245,0.0,0.0,100,0.00,,,0.00,0,Wunderground v.1.15,2013-03-28 15:40:00,
2013-03-28 08:50:00,41.0,41.0,29.88,WSW,245,0.0,0.0,100,0.00,,,0.00,0,Wunderground v.1.15,2013-03-28 15:50:00,
2013-03-28 09:00:00,42.0,42.0,29.88,WSW,245,1.0,1.0,100,0.00,,,0.00,0,Wunderground v.1.15,2013-03-28 16:00:00,
2013-03-28 09:05:00,42.3,42.3,29.88,WSW,253,0.0,1.0,100,0.00,,,0.00,0,Wunderground v.1.15,2013-03-28 16:05:00,
2013-03-28 09:10:00,42.9,42.9,29.88,WSW,254,0.0,0.0,100,0.00,,,0.00,0,Wunderground v.1.15,2013-03-28 16:10:00,
2013-03-28 09:20:00,43.9,43.9,29.88,WSW,254,0.0,0.0,100,0.00,,,0.00,0,Wunderground v.1.15,2013-03-28 16:20:00,
2013-03-28 09:30:00,45.6,45.6,29.88,WSW,254,0.0,0.0,100,0.00,,,0.00,0,Wunderground v.1.15,2013-03-28 16:30:00,
2013-03-28 09:40:00,46.0,45.7,29.89,WSW,253,0.0,0.0,99,0.00,,,0.00,0,Wunderground v.1.15,2013-03-28 16:40:00,
2013-03-28 09:50:00,46.1,44.7,29.88,ENE,69,0.0,0.0,95,0.00,,,0.00,0,Wunderground v.1.15,2013-03-28 16:50:00,
2013-03-28 10:00:00,46.7,45.1,29.89,ENE,71,0.0,0.0,94,0.00,,,0.00,0,Wunderground v.1.15,2013-03-28 17:00:00,
2013-03-28 10:05:00,47.1,45.5,29.88,ESE,108,0.0,0.0,94,0.00,,,0.00,0,Wunderground v.1.15,2013-03-28 17:05:00,
2013-03-28 10:10:00,47.3,45.7,29.89,East,99,0.0,0.0,94,0.00,,,0.00,0,Wunderground v.1.15,2013-03-28 17:10:00,
2013-03-28 10:20:00,48.3,46.1,29.89,South,177,0.0,0.0,92,0.00,,,0.00,0,Wunderground v.1.15,2013-03-28 17:20:00,
2013-03-28 10:30:00,48.3,45.2,29.89,NNE,33,0.0,0.0,89,0.00,,,0.00,0,Wunderground v.1.15,2013-03-28 17:30:00,
2013-03-28 10:40:00,48.0,45.2,29.89,NNE,31,0.0,0.0,90,0.00,,,0.00,0,Wunderground v.1.15,2013-03-28 17:40:00,
2013-03-28 10:50:00,47.7,44.9,29.89,NE,37,0.0,0.0,90,0.00,,,0.00,0,Wunderground v.1.15,2013-03-28 17:50:00,
2013-03-28 11:00:00,48.3,45.2,29.89,East,87,2.0,2.0,89,0.00,,,0.00,0,Wunderground v.1.15,2013-03-28 18:00:00,
2013-03-28 11:10:00,48.3,44.9,29.89,East,87,0.0,0.0,88,0.00,,,0.00,0,Wunderground v.1.15,2013-03-28 18:10:00,
2013-03-28 11:20:00,49.2,45.2,29.89,ENE,75,2.0,2.0,86,0.00,,,0.00,0,Wunderground v.1.15,2013-03-28 18:20:00,
2013-03-28 11:30:00,49.4,45.4,29.89,ENE,75,0.0,0.0,86,0.00,,,0.00,0,Wunderground v.1.15,2013-03-28 18:30:00,
2013-03-28 11:40:00,49.4,45.4,29.89,SE,144,1.0,1.0,86,0.00,,,0.00,0,Wunderground v.1.15,2013-03-28 18:40:00,
2013-03-28 11:50:00,50.4,46.1,29.89,NE,53,2.0,3.0,85,0.00,,,0.00,0,Wunderground v.1.15,2013-03-28 18:50:00,
2013-03-28 12:00:00,50.7,46.4,29.89,East,89,2.0,2.0,85,0.00,,,0.00,0,Wunderground v.1.15,2013-03-28 19:00:00,
2013-03-28 12:10:00,51.7,46.4,29.88,East,91,7.0,7.0,82,0.00,,,0.00,0,Wunderground v.1.15,2013-03-28 19:10:00,
2013-03-28 12:20:00,52.5,46.2,29.88,East,85,3.0,3.0,79,0.00,,,0.00,0,Wunderground v.1.15,2013-03-28 19:20:00,
2013-03-28 12:30:00,53.4,46.4,29.88,SSW,206,1.0,1.0,77,0.00,,,0.00,0,Wunderground v.1.15,2013-03-28 19:30:00,
2013-03-28 12:40:00,53.1,46.1,29.88,East,83,0.0,0.0,77,0.00,,,0.00,0,Wunderground v.1.15,2013-03-28 19:40:00,
2013-03-28 12:50:00,53.1,46.1,29.88,SSE,163,0.0,0.0,77,0.00,,,0.00,0,Wunderground v.1.15,2013-03-28 19:50:00,
2013-03-28 13:00:00,51.3,46.9,29.88,West,275,5.0,5.0,85,0.00,,,0.00,0,Wunderground v.1.15,2013-03-28 20:00:00,
2013-03-28 13:10:00,51.1,45.1,29.88,WSW,246,7.0,7.0,80,0.00,,,0.00,0,Wunderground v.1.15,2013-03-28 20:10:00,
2013-03-28 13:20:00,52.3,45.3,29.88,NW,311,3.0,3.0,77,0.00,,,0.00,0,Wunderground v.1.15,2013-03-28 20:20:00,
2013-03-28 13:30:00,52.7,46.4,29.88,WSW,252,8.0,8.0,79,0.00,,,0.00,0,Wunderground v.1.15,2013-03-28 20:30:00,
2013-03-28 13:40:00,52.7,46.4,29.88,NNW,346,6.0,6.0,79,0.00,,,0.00,0,Wunderground v.1.15,2013-03-28 20:40:00,
2013-03-28 13:50:00,53.2,46.2,29.87,North,0,2.0,2.0,77,0.00,,,0.00,0,Wunderground v.1.15,2013-03-28 20:50:00,
2013-03-28 14:00:00,53.4,46.4,29.87,NNW,347,2.0,2.0,77,0.00,,,0.00,0,Wunderground v.1.15,2013-03-28 21:00:00,
2013-03-28 14:10:00,54.5,46.4,29.87,WNW,301,3.0,3.0,74,0.00,,,0.00,0,Wunderground v.1.15,2013-03-28 21:10:00,
2013-03-28 14:20:00,54.6,46.1,29.87,WSW,252,1.0,1.0,73,0.00,,,0.00,0,Wunderground v.1.15,2013-03-28 21:20:00,
2013-03-28 14:30:00,53.9,46.5,29.86,West,261,8.0,8.0,76,0.00,,,0.00,0,Wunderground v.1.15,2013-03-28 21:30:00,
2013-03-28 14:40:00,52.9,47.2,29.87,WSW,254,3.0,3.0,81,0.00,,,0.00,0,Wunderground v.1.15,2013-03-28 21:40:00,
2013-03-28 14:50:00,52.8,47.5,29.86,WSW,250,4.0,4.0,82,0.00,,,0.00,0,Wunderground v.1.15,2013-03-28 21:50:00,
2013-03-28 15:00:00,54.4,45.9,29.86,NNE,16,3.0,3.0,73,0.00,,,0.00,0,Wunderground v.1.15,2013-03-28 22:00:00,
2013-03-28 15:10:00,54.8,45.6,29.85,East,83,5.0,5.0,71,0.00,,,0.00,0,Wunderground v.1.15,2013-03-28 22:10:00,
2013-03-28 15:20:00,55.4,45.0,29.85,NE,48,2.0,2.0,68,0.00,,,0.00,0,Wunderground v.1.15,2013-03-28 22:20:00,
2013-03-28 15:30:00,56.3,44.7,29.86,WNW,303,3.0,3.0,65,0.00,,,0.00,0,Wunderground v.1.15,2013-03-28 22:30:00,
2013-03-28 15:40:00,55.9,45.1,29.85,SW,217,6.0,6.0,67,0.00,,,0.00,0,Wunderground v.1.15,2013-03-28 22:40:00,
2013-03-28 15:50:00,55.4,44.2,29.85,NW,314,4.0,4.0,66,0.00,,,0.00,0,Wunderground v.1.15,2013-03-28 22:50:00,
2013-03-28 16:00:00,55.0,46.1,29.85,WSW,256,13.0,13.0,72,0.00,,,0.00,0,Wunderground v.1.15,2013-03-28 23:00:00,
2013-03-28 16:10:00,53.5,44.3,29.86,West,267,12.0,12.0,71,0.00,,,0.00,0,Wunderground v.1.15,2013-03-28 23:10:00,
2013-03-28 16:20:00,52.2,44.9,29.87,WSW,239,9.0,9.0,76,0.00,,,0.00,0,Wunderground v.1.15,2013-03-28 23:20:00,
2013-03-28 16:30:00,51.0,46.3,29.87,WSW,250,9.0,9.0,84,0.00,,,0.00,0,Wunderground v.1.15,2013-03-28 23:30:00,
2013-03-28 16:40:00,49.4,46.6,29.87,SW,223,5.0,5.0,90,0.00,,,0.00,0,Wunderground v.1.15,2013-03-28 23:40:00,
2013-03-28 16:50:00,48.9,46.4,29.88,West,262,5.0,5.0,91,0.00,,,0.00,0,Wunderground v.1.15,2013-03-28 23:50:00,
2013-03-28 17:00:00,48.1,46.7,29.88,NNE,12,1.0,1.0,95,0.00,,,0.00,0,Wunderground v.1.15,2013-03-29 00:00:00,
2013-03-28 17:05:00,48.2,47.4,29.88,WNW,291,1.0,1.0,97,0.00,,,0.00,0,Wunderground v.1.15,2013-03-29 00:05:00,
2013-03-28 17:15:00,48.6,46.7,29.88,NNW,341,8.0,8.0,93,0.00,,,0.00,0,Wunderground v.1.15,2013-03-29 00:15:00,
2013-03-28 17:20:00,49.2,46.4,29.88,NNW,335,7.0,7.0,90,0.00,,,0.00,0,Wunderground v.1.15,2013-03-29 00:20:00,
2013-03-28 17:30:00,49.6,45.3,29.88,NW,310,5.0,5.0,85,0.00,,,0.00,0,Wunderground v.1.15,2013-03-29 00:30:00,
2013-03-28 17:40:00,49.5,45.2,29.88,NW,315,2.0,2.0,85,0.00,,,0.00,0,Wunderground v.1.15,2013-03-29 00:40:00,
2013-03-28 17:50:00,49.5,45.2,29.88,NNW,338,4.0,4.0,85,0.00,,,0.00,0,Wunderground v.1.15,2013-03-29 00:50:00,
2013-03-28 18:00:00,49.6,45.3,29.88,NW,305,3.0,3.0,85,0.00,,,0.00,0,Wunderground v.1.15,2013-03-29 01:00:00,
2013-03-28 18:10:00,49.5,45.2,29.88,NNW,331,0.0,0.0,85,0.00,,,0.00,0,Wunderground v.1.15,2013-03-29 01:10:00,
2013-03-28 18:20:00,49.5,45.2,29.88,NW,312,5.0,5.0,85,0.00,,,0.00,0,Wunderground v.1.15,2013-03-29 01:20:00,
2013-03-28 18:30:00,49.5,45.5,29.88,NW,305,3.0,3.0,86,0.00,,,0.00,0,Wunderground v.1.15,2013-03-29 01:30:00,
2013-03-28 18:40:00,49.5,45.2,29.89,NNW,348,8.0,8.0,85,0.00,,,0.00,0,Wunderground v.1.15,2013-03-29 01:40:00,
2013-03-28 18:50:00,49.3,45.3,29.89,NNW,348,2.0,2.0,86,0.00,,,0.00,0,Wunderground v.1.15,2013-03-29 01:50:00,
2013-03-28 19:00:00,49.1,46.0,29.89,NNW,337,4.0,4.0,89,0.00,,,0.00,0,Wunderground v.1.15,2013-03-29 02:00:00,
2013-03-28 19:05:00,49.0,46.2,29.89,North,354,1.0,4.0,90,0.00,,,0.00,0,Wunderground v.1.15,2013-03-29 02:05:00,
2013-03-28 19:15:00,48.9,46.4,29.90,North,354,2.0,2.0,91,0.00,,,0.00,0,Wunderground v.1.15,2013-03-29 02:15:00,
2013-03-28 19:20:00,48.9,46.4,29.90,NNW,338,2.0,2.0,91,0.00,,,0.00,0,Wunderground v.1.15,2013-03-29 02:20:00,
2013-03-28 19:30:00,48.8,45.4,29.90,West,281,1.0,1.0,88,0.00,,,0.00,0,Wunderground v.1.15,2013-03-29 02:30:00,
2013-03-28 19:40:00,48.6,45.8,29.90,NNW,330,1.0,1.0,90,0.00,,,0.00,0,Wunderground v.1.15,2013-03-29 02:40:00,
2013-03-28 19:50:00,48.4,44.7,29.90,NW,324,5.0,5.0,87,0.00,,,0.00,0,Wunderground v.1.15,2013-03-29 02:50:00,
2013-03-28 20:00:00,48.2,44.5,29.90,NNW,348,3.0,3.0,87,0.00,,,0.00,0,Wunderground v.1.15,2013-03-29 03:00:00,
2013-03-28 20:05:00,48.1,44.4,29.91,NNW,337,2.0,3.0,87,0.00,,,0.00,0,Wunderground v.1.15,2013-03-29 03:05:00,
2013-03-28 20:15:00,47.8,44.4,29.91,NW,320,0.0,3.0,88,0.00,,,0.00,0,Wunderground v.1.15,2013-03-29 03:15:00,
2013-03-28 20:20:00,47.7,44.6,29.91,NW,314,2.0,2.0,89,0.00,,,0.00,0,Wunderground v.1.15,2013-03-29 03:20:00,
2013-03-28 20:30:00,47.4,44.6,29.91,WNW,282,1.0,1.0,90,0.00,,,0.00,0,Wunderground v.1.15,2013-03-29 03:30:00,
2013-03-28 20:40:00,47.3,44.5,29.92,NNW,344,1.0,1.0,90,0.00,,,0.00,0,Wunderground v.1.15,2013-03-29 03:40:00,
2013-03-28 20:50:00,47.2,44.4,29.92,North,0,4.0,4.0,90,0.00,,,0.00,0,Wunderground v.1.15,2013-03-29 03:50:00,
2013-03-28 21:00:00,47.1,44.3,29.93,NW,324,0.0,0.0,90,0.00,,,0.00,0,Wunderground v.1.15,2013-03-29 04:00:00,
2013-03-28 21:10:00,47.1,44.3,29.93,NNW,330,1.0,1.0,90,0.00,,,0.00,0,Wunderground v.1.15,2013-03-29 04:10:00,
2013-03-28 21:15:00,47.1,44.3,29.93,NW,322,2.0,2.0,90,0.00,,,0.00,0,Wunderground v.1.15,2013-03-29 04:15:00,
2013-03-28 21:20:00,47.0,44.2,29.94,NNW,347,0.0,0.0,90,0.00,,,0.00,0,Wunderground v.1.15,2013-03-29 04:20:00,
2013-03-28 21:30:00,46.7,44.2,29.94,WNW,284,0.0,0.0,91,0.00,,,0.00,0,Wunderground v.1.15,2013-03-29 04:30:00,
2013-03-28 21:40:00,46.6,44.4,29.94,WNW,295,0.0,0.0,92,0.00,,,0.00,0,Wunderground v.1.15,2013-03-29 04:40:00,
2013-03-28 21:50:00,46.5,44.6,29.94,WNW,295,0.0,0.0,93,0.00,,,0.00,0,Wunderground v.1.15,2013-03-29 04:50:00,
2013-03-28 22:00:00,46.2,44.6,29.95,WNW,295,1.0,1.0,94,0.00,,,0.00,0,Wunderground v.1.15,2013-03-29 05:00:00,
2013-03-28 22:05:00,46.1,44.5,29.95,WNW,294,0.0,1.0,94,0.00,,,0.00,0,Wunderground v.1.15,2013-03-29 05:05:00,
2013-03-28 22:15:00,45.5,44.7,29.95,WNW,294,0.0,0.0,97,0.00,,,0.00,0,Wunderground v.1.15,2013-03-29 05:15:00,
2013-03-28 22:20:00,45.4,44.6,29.95,WNW,294,0.0,0.0,97,0.00,,,0.00,0,Wunderground v.1.15,2013-03-29 05:20:00,
2013-03-28 22:30:00,44.8,44.5,29.95,WNW,294,0.0,0.0,99,0.00,,,0.00,0,Wunderground v.1.15,2013-03-29 05:30:00,
2013-03-28 22:40:00,44.8,44.5,29.95,WNW,294,0.0,0.0,99,0.00,,,0.00,0,Wunderground v.1.15,2013-03-29 05:40:00,
2013-03-28 22:50:00,44.8,44.8,29.96,WNW,294,1.0,1.0,100,0.00,,,0.00,0,Wunderground v.1.15,2013-03-29 05:50:00,
2013-03-28 23:00:00,44.7,44.7,29.96,WSW,252,3.0,3.0,100,0.00,,,0.00,0,Wunderground v.1.15,2013-03-29 06:00:00,
2013-03-28 23:10:00,44.6,44.6,29.96,WSW,253,1.0,1.0,100,0.00,,,0.00,0,Wunderground v.1.15,2013-03-29 06:10:00,
2013-03-28 23:20:00,44.6,44.6,29.96,WSW,253,0.0,0.0,100,0.00,,,0.00,0,Wunderground v.1.15,2013-03-29 06:20:00,
2013-03-28 23:30:00,44.5,44.5,29.96,WSW,253,0.0,0.0,100,0.00,,,0.00,0,Wunderground v.1.15,2013-03-29 06:30:00,
2013-03-28 23:40:00,44.4,44.4,29.96,WSW,252,3.0,3.0,100,0.00,,,0.00,0,Wunderground v.1.15,2013-03-29 06:40:00,
2013-03-28 23:50:00,44.2,44.2,29.96,WSW,253,0.0,0.0,100,0.00,,,0.00,0,Wunderground v.1.15,2013-03-29 06:50:00,